Lid_Strength_Index
1 1 1 1 0 0 0 1 1 1 1 1 -1 -1 -1 -1 -1 -1 -1 -1 -1 -1 -1 -1 -2 -2 -1 -2 -1 -1 -1 -1 -1
1 2 2 2 1 0 -0 -1 1 1 1 1 1 0 -1 -1 -1 -1 -1 -1 -1 -2 -2 -2 -2 -2 -2 -2 -2 -2 -2 -2 -1
2 3 3 3 2 1 0 -0 -1 -0 0 1 1 1 1 -1 -0 -1 -1 -1 -1 -2 -2 -1 -1 -2 -2 -2 -2 -2 -2 -2 -2
3 3 3 3 3 2 1 1 0 -1 -1 1 2 2 3 3 2 3 0 1 -1 -1 -2 -2 -2 -2 -2 -2 -2 -2 -2 -2 -2
4 4 4 3 3 2 2 1 1 0 -0 0 2 3 5 6 6 3 3 2 -1 -1 -1 -2 -2 -2 -2 -2 -2 -2 -2 -2 -2
6 5 4 3 3 3 3 2 2 1 1 3 3 3 5 6 6 5 5 2 1 -0 -1 -1 -2 -2 -2 -2 -2 -2 -2 -2 -2
5 5 4 3 3 3 3 3 3 4 5 5 4 6 5 6 6 6 5 4 1 1 -1 -1 -2 -2 -2 -2 -2 -2 -2 -2 -2
6 6 6 5 5 5 5 5 5 5 5 5 4 4 6 6 6 6 5 4 3 2 1 1 -1 -1 -1 -2 -2 -2 -2 -2 -2
7 7 6 6 6 6 6 5 5 5 5 5 5 4 4 5 6 5 4 4 3 3 2 2 1 -1 -1 -1 -1 -1 -2 -2 -2
7 7 7 7 6 6 6 6 6 6 5 5 4 4 3 4 4 4 4 4 4 3 3 2 2 2 0 1 2 2 -0 -1 -2
7 7 7 7 6 6 6 6 6 6 5 5 5 4 3 3 3 3 4 4 5 4 4 3 3 3 2 2 3 3 2 1 -1
8 7 7 7 7 6 6 7 6 6 6 6 5 4 3 3 3 2 3 4 4 4 5 4 4 4 3 3 3 3 4 1 -0
7 7 8 7 7 7 7 7 7 7 7 6 6 5 4 3 3 2 2 2 5 4 5 4 4 4 4 4 4 3 2 2 1
6 6 6 7 7 7 7 7 7 8 7 7 6 6 5 4 3 3 2 2 2 3 5 4 4 4 4 3 3 3 2 1 2
6 6 6 6 7 7 7 8 8 8 8 8 7 6 6 5 4 3 3 2 1 2 3 4 5 4 4 3 2 3 1 1 2
5 5 6 5 6 6 7 7 8 8 8 8 8 7 6 6 5 4 3 3 2 2 3 4 5 5 4 3 3 0 1 1 1
5 5 5 5 5 6 6 8 8 9 8 9 9 10 8 7 6 5 3 3 3 3 3 3 4 4 4 4 4 2 2 1 0
5 5 5 5 5 6 6 7 8 10 8 7 8 10 10 8 6 5 4 4 4 3 3 3 4 4 5 5 4 1 1 2 2
6 6 6 6 6 6 6 6 7 8 8 7 6 6 7 9 9 6 5 4 4 3 3 4 3 3 3 5 3 2 2 2 3
6 6 6 6 6 6 6 6 6 7 8 8 7 7 6 6 7 8 6 5 4 3 3 3 3 3 3 3 2 3 2 3 3